TimeCST,TemperatureF,Dew PointF,Humidity,Sea Level PressureIn,VisibilityMPH,Wind Direction,Wind SpeedMPH,Gust SpeedMPH,PrecipitationIn,Events,Conditions,WindDirDegrees,DateUTC
12:53 AM,12.9,9.0,84,30.30,6.0,Calm,Calm,-,N/A,,Clear,0,2013-01-02 06:53:00
1:53 AM,12.9,10.0,88,30.29,6.0,WSW,6.9,-,N/A,,Clear,240,2013-01-02 07:53:00
2:53 AM,10.9,8.1,88,30.29,6.0,SSW,6.9,-,N/A,,Clear,210,2013-01-02 08:53:00
3:53 AM,10.0,8.1,92,30.27,6.0,SW,5.8,-,N/A,,Clear,220,2013-01-02 09:53:00
4:53 AM,12.0,9.0,88,30.26,6.0,SSW,6.9,-,N/A,,Clear,200,2013-01-02 10:53:00
6:53 AM,14.0,10.9,88,30.24,6.0,South,6.9,-,N/A,,Clear,190,2013-01-02 12:53:00
7:53 AM,12.0,9.0,88,30.25,5.0,Calm,Calm,-,N/A,,Clear,0,2013-01-02 13:53:00
8:53 AM,17.1,14.0,88,30.22,6.0,SE,3.5,-,N/A,,Clear,140,2013-01-02 14:53:00
9:53 AM,26.1,19.9,78,30.24,10.0,SW,13.8,23.0,N/A,,Clear,220,2013-01-02 15:53:00
10:53 AM,28.0,21.0,75,30.25,10.0,WSW,13.8,-,0.01,,Clear,250,2013-01-02 16:53:00
11:53 AM,28.0,21.0,75,30.22,10.0,WSW,13.8,-,0.01,,Clear,240,2013-01-02 17:53:00
12:53 PM,28.9,21.0,72,30.20,9.0,WSW,9.2,-,0.02,,Clear,240,2013-01-02 18:53:00
1:53 PM,28.9,19.9,69,30.18,9.0,West,9.2,-,N/A,,Scattered Clouds,260,2013-01-02 19:53:00
2:53 PM,28.9,18.0,64,30.21,10.0,WNW,12.7,-,N/A,,Overcast,290,2013-01-02 20:53:00
3:53 PM,28.0,18.0,66,30.22,10.0,WNW,9.2,-,N/A,,Mostly Cloudy,290,2013-01-02 21:53:00
4:53 PM,27.0,19.9,75,30.24,10.0,West,5.8,-,N/A,,Overcast,280,2013-01-02 22:53:00
5:53 PM,25.0,19.0,78,30.26,10.0,WNW,5.8,-,N/A,,Scattered Clouds,290,2013-01-02 23:53:00
6:53 PM,21.9,18.0,85,30.28,9.0,WNW,6.9,-,N/A,,Clear,300,2013-01-03 00:53:00
7:53 PM,19.9,17.1,89,30.29,8.0,WNW,3.5,-,N/A,,Partly Cloudy,300,2013-01-03 01:53:00
8:53 PM,24.1,19.9,84,30.30,7.0,West,6.9,-,N/A,,Overcast,270,2013-01-03 02:53:00
9:53 PM,27.0,24.1,89,30.30,10.0,West,4.6,-,N/A,,Overcast,280,2013-01-03 03:53:00
10:53 PM,28.0,24.1,85,30.31,10.0,WSW,4.6,-,N/A,,Overcast,240,2013-01-03 04:53:00
11:53 PM,28.9,25.0,85,30.32,10.0,West,5.8,-,N/A,,Overcast,270,2013-01-03 05:53:00